When you browse on this site, cookies collect data to enhance your experience and personalize the content and advertising you see.
Visit our Privacy Policy to learn more. By continuing to use the site, you agree to this use of cookies and data.
  • In Portugal
  • List of Countries
  • For 7 days
  • Water Temperature
  • Weather Map
  • Weather Widgets
  • user-avatar
    Login

    Hourly Weather Kandahar

    Today, 18 January, Saturday

    Time Temperature Precipitation Wind Pressure Humidity
    00:00 +3°C° 0 mm 1 mps 679 mmHg 68%
    01:00 +2°C° 0 mm 1 mps 679 mmHg 68%
    02:00 +2°C° 0 mm 1 mps 678 mmHg 68%
    03:00 +2°C° 0 mm 1 mps 678 mmHg 67%
    04:00 +1°C° 0 mm 1 mps 678 mmHg 66%
    05:00 +1°C° 0 mm 1 mps 679 mmHg 64%
    06:00 -1°C° 0 mm 2 mps 679 mmHg 63%
    07:00 -1°C° 0 mm 2 mps 679 mmHg 61%
    08:00 0°C° 0 mm 3 mps 679 mmHg 55%
    09:00 +1°C° 0 mm 3 mps 680 mmHg 50%
    10:00 +2°C° 0 mm 3 mps 680 mmHg 45%
    11:00 +3°C° 0 mm 3 mps 679 mmHg 42%
    12:00 +4°C° 0 mm 3 mps 679 mmHg 40%
    13:00 +5°C° 0 mm 3 mps 678 mmHg 37%
    14:00 +5°C° 0 mm 3 mps 678 mmHg 36%
    15:00 +5°C° 0 mm 3 mps 678 mmHg 35%
    16:00 +5°C° 0 mm 3 mps 678 mmHg 35%
    17:00 +4°C° 0 mm 3 mps 678 mmHg 39%
    18:00 +3°C° 0 mm 3 mps 678 mmHg 43%
    19:00 +3°C° 0 mm 2 mps 678 mmHg 47%
    20:00 +1°C° 0 mm 3 mps 678 mmHg 46%
    21:00 +1°C° 0 mm 3 mps 678 mmHg 45%
    22:00 +1°C° 0 mm 3 mps 678 mmHg 45%
    23:00 +1°C° 0 mm 3 mps 677 mmHg 44%

    Tomorrow, 19 January, Sunday

    Time Temperature Precipitation Wind Pressure Humidity
    00:00 +1°C° 0 mm 3 mps 677 mmHg 42%
    01:00 +1°C° 0 mm 3 mps 677 mmHg 41%
    02:00 0°C° 0 mm 3 mps 677 mmHg 41%
    03:00 0°C° 0 mm 3 mps 676 mmHg 41%
    04:00 0°C° 0 mm 3 mps 676 mmHg 41%
    05:00 0°C° 0 mm 3 mps 676 mmHg 41%
    06:00 0°C° 0 mm 3 mps 676 mmHg 40%
    07:00 0°C° 0 mm 3 mps 676 mmHg 40%
    08:00 +1°C° 0 mm 4 mps 676 mmHg 36%
    09:00 +3°C° 0 mm 4 mps 676 mmHg 32%
    10:00 +5°C° 0 mm 4 mps 677 mmHg 29%
    11:00 +6°C° 0 mm 4 mps 676 mmHg 28%
    12:00 +7°C° 0 mm 4 mps 675 mmHg 27%
    13:00 +8°C° 0 mm 4 mps 675 mmHg 26%
    14:00 +8°C° 0 mm 4 mps 675 mmHg 28%
    15:00 +8°C° 0 mm 4 mps 674 mmHg 30%
    16:00 +8°C° 0 mm 4 mps 674 mmHg 32%
    17:00 +7°C° 0 mm 4 mps 674 mmHg 36%
    18:00 +7°C° 0 mm 3 mps 675 mmHg 39%
    19:00 +7°C° 0 mm 3 mps 675 mmHg 43%
    20:00 +5°C° 0.1 mm 3 mps 675 mmHg 45%
    21:00 +5°C° 0.1 mm 3 mps 675 mmHg 47%
    22:00 +5°C° 0.1 mm 4 mps 675 mmHg 49%
    23:00 +5°C° 0 mm 4 mps 675 mmHg 55%

    Day after tomorrow, 20 January, Monday

    Time Temperature Precipitation Wind Pressure Humidity
    00:00 +4°C° 0 mm 4 mps 675 mmHg 60%
    01:00 +3°C° 0 mm 5 mps 675 mmHg 66%
    02:00 +3°C° 0 mm 4 mps 674 mmHg 67%
    03:00 +3°C° 0 mm 4 mps 674 mmHg 67%
    04:00 +3°C° 0 mm 4 mps 673 mmHg 68%
    05:00 +3°C° 0 mm 3 mps 674 mmHg 67%
    06:00 +3°C° 0 mm 3 mps 674 mmHg 66%
    07:00 +4°C° 0 mm 2 mps 675 mmHg 65%
    08:00 +3°C° 0.6 mm 3 mps 675 mmHg 73%
    09:00 +2°C° 0.6 mm 3 mps 675 mmHg 81%
    10:00 +2°C° 0.6 mm 3 mps 675 mmHg 89%
    11:00 +2°C° 1.1 mm 3 mps 674 mmHg 91%
    12:00 +1°C° 1.1 mm 3 mps 673 mmHg 93%
    13:00 +1°C° 1.1 mm 3 mps 673 mmHg 95%
    14:00 +1°C° 0.3 mm 3 mps 673 mmHg 95%
    15:00 +2°C° 0.3 mm 3 mps 673 mmHg 95%
    16:00 +2°C° 0.3 mm 3 mps 673 mmHg 95%
    17:00 +3°C° 0 mm 2 mps 673 mmHg 93%
    18:00 +3°C° 0 mm 2 mps 674 mmHg 91%
    19:00 +4°C° 0 mm 2 mps 674 mmHg 89%
    20:00 +3°C° 0 mm 2 mps 674 mmHg 88%
    21:00 +3°C° 0 mm 2 mps 674 mmHg 87%
    22:00 +3°C° 0 mm 2 mps 674 mmHg 86%
    23:00 +3°C° 0 mm 2 mps 674 mmHg 84%

    21 January, Tuesday

    Time Temperature Precipitation Wind Pressure Humidity
    00:00 +3°C° 0 mm 2 mps 674 mmHg 83%
    01:00 +3°C° 0 mm 2 mps 674 mmHg 81%
    02:00 +3°C° 0 mm 2 mps 674 mmHg 82%
    03:00 +2°C° 0 mm 2 mps 674 mmHg 82%
    04:00 +3°C° 0 mm 1 mps 674 mmHg 82%
    05:00 +3°C° 0 mm 1 mps 674 mmHg 82%
    06:00 +2°C° 0 mm 2 mps 675 mmHg 81%
    07:00 +3°C° 0 mm 2 mps 676 mmHg 81%
    08:00 +4°C° 0 mm 2 mps 676 mmHg 76%
    09:00 +6°C° 0 mm 1 mps 677 mmHg 71%
    10:00 +7°C° 0 mm 1 mps 677 mmHg 66%
    11:00 +7°C° 0 mm 1 mps 677 mmHg 64%
    12:00 +8°C° 0 mm 1 mps 677 mmHg 62%
    13:00 +9°C° 0 mm 1 mps 676 mmHg 59%
    14:00 +9°C° 0 mm 1 mps 676 mmHg 58%
    15:00 +9°C° 0 mm 1 mps 676 mmHg 57%
    16:00 +9°C° 0 mm 1 mps 676 mmHg 56%
    17:00 +9°C° 0 mm 1 mps 677 mmHg 60%
    18:00 +8°C° 0 mm 1 mps 677 mmHg 65%
    19:00 +7°C° 0 mm 1 mps 678 mmHg 69%
    20:00 +7°C° 0 mm 1 mps 678 mmHg 71%
    21:00 +6°C° 0 mm 1 mps 679 mmHg 73%
    22:00 +6°C° 0 mm 1 mps 679 mmHg 75%
    23:00 +6°C° 0 mm 1 mps 679 mmHg 76%

    22 January, Wednesday

    Time Temperature Precipitation Wind Pressure Humidity
    00:00 +5°C° 0 mm 1 mps 679 mmHg 76%
    01:00 +4°C° 0 mm 2 mps 679 mmHg 77%
    02:00 +4°C° 0 mm 2 mps 679 mmHg 77%
    03:00 +3°C° 0 mm 2 mps 679 mmHg 78%
    04:00 +3°C° 0 mm 2 mps 678 mmHg 78%
    05:00 +3°C° 0 mm 2 mps 679 mmHg 78%
    06:00 +2°C° 0 mm 3 mps 679 mmHg 77%
    07:00 +2°C° 0 mm 3 mps 680 mmHg 77%
    08:00 +3°C° 0 mm 3 mps 680 mmHg 70%
    09:00 +4°C° 0 mm 4 mps 680 mmHg 64%
    10:00 +6°C° 0 mm 4 mps 680 mmHg 57%
    11:00 +7°C° 0 mm 4 mps 680 mmHg 53%
    12:00 +8°C° 0 mm 4 mps 679 mmHg 49%
    13:00 +10°C° 0 mm 3 mps 679 mmHg 45%
    14:00 +9°C° 0 mm 3 mps 678 mmHg 45%
    15:00 +9°C° 0 mm 3 mps 678 mmHg 45%
    16:00 +9°C° 0 mm 3 mps 678 mmHg 45%
    17:00 +8°C° 0 mm 3 mps 678 mmHg 50%
    18:00 +7°C° 0 mm 3 mps 678 mmHg 54%
    19:00 +5°C° 0 mm 3 mps 679 mmHg 58%
    20:00 +5°C° 0 mm 3 mps 679 mmHg 58%
    21:00 +4°C° 0 mm 4 mps 679 mmHg 58%
    22:00 +3°C° 0 mm 4 mps 679 mmHg 58%
    23:00 +3°C° 0 mm 4 mps 679 mmHg 57%

    23 January, Thursday

    Time Temperature Precipitation Wind Pressure Humidity
    00:00 +3°C° 0 mm 4 mps 678 mmHg 56%
    01:00 +1°C° 0 mm 4 mps 678 mmHg 54%
    02:00 +1°C° 0 mm 4 mps 678 mmHg 53%
    03:00 +2°C° 0 mm 3 mps 677 mmHg 52%
    04:00 +2°C° 0 mm 3 mps 677 mmHg 51%
    05:00 +2°C° 0 mm 3 mps 677 mmHg 51%
    06:00 +2°C° 0 mm 3 mps 678 mmHg 50%
    07:00 +2°C° 0 mm 3 mps 678 mmHg 50%
    08:00 +3°C° 0 mm 4 mps 678 mmHg 46%
    09:00 +5°C° 0 mm 4 mps 678 mmHg 42%
    10:00 +6°C° 0 mm 4 mps 678 mmHg 38%
    11:00 +8°C° 0 mm 4 mps 678 mmHg 36%
    12:00 +10°C° 0 mm 4 mps 677 mmHg 35%
    13:00 +11°C° 0 mm 4 mps 677 mmHg 33%
    14:00 +11°C° 0 mm 4 mps 676 mmHg 35%
    15:00 +11°C° 0 mm 4 mps 676 mmHg 37%
    16:00 +11°C° 0 mm 4 mps 675 mmHg 39%
    17:00 +10°C° 0 mm 4 mps 675 mmHg 43%
    18:00 +8°C° 0 mm 4 mps 675 mmHg 47%
    19:00 +6°C° 0 mm 4 mps 675 mmHg 51%
    20:00 +6°C° 0 mm 5 mps 675 mmHg 52%
    21:00 +6°C° 0 mm 5 mps 675 mmHg 52%
    22:00 +5°C° 0 mm 5 mps 675 mmHg 52%
    23:00 +5°C° 0 mm 5 mps 674 mmHg 53%
    Show more